Wind_Speed
19 18 17 17 18 19 20 20 21 21 22 21 21 21 22 22 22 22 22 23 24 24 23 22 22 22 22 21 20 20 20 21 22 23 25 26 27 29 31 33 35 36 38 39
18 16 16 16 16 17 18 18 20 20 20 19 19 19 19 19 19 19 21 22 22 21 21 20 20 21 20 19 18 17 17 17 17 19 20 22 23 25 27 29 31 33 35 37
16 14 14 14 14 14 15 17 18 18 18 17 17 15 16 15 16 17 18 18 18 19 19 19 20 20 20 19 19 18 17 16 16 16 16 17 19 20 22 24 27 29 32 34
14 13 12 12 12 12 14 16 16 16 16 15 14 13 13 13 14 15 16 16 17 18 18 19 20 20 20 20 20 19 18 17 16 16 15 15 15 17 19 21 23 25 28 30
13 11 10 9 9 11 13 15 15 15 14 12 11 11 11 12 13 14 15 16 17 18 19 19 20 20 20 20 21 20 19 18 17 16 15 14 13 14 15 17 19 21 23 26
11 8 6 6 8 10 12 13 13 12 11 10 10 10 11 12 13 14 16 17 18 19 20 20 20 20 20 21 21 20 20 19 18 17 16 14 13 14 14 14 15 17 19 21
9 6 3 4 7 9 11 12 11 11 11 10 10 10 11 12 14 15 16 18 19 19 20 20 20 21 21 21 21 20 20 20 20 19 17 15 14 14 14 14 14 15 16 18
8 4 1 3 6 7 9 10 10 10 10 9 9 10 11 13 15 16 17 18 19 19 20 20 21 21 21 21 21 21 20 21 21 20 18 16 15 14 14 14 14 14 14 14
6 4 1 2 5 6 7 9 9 8 8 8 9 10 12 13 15 16 17 18 19 19 19 20 21 22 21 22 21 21 21 21 21 20 19 18 17 16 15 15 14 13 12 12
5 3 1 2 3 5 7 8 8 7 7 8 9 10 11 12 14 16 17 18 18 19 19 20 21 22 22 22 22 22 22 22 23 22 21 20 19 18 17 15 14 13 12 12
6 3 1 1 3 4 6 7 7 7 8 8 8 10 11 12 14 15 17 17 18 18 19 20 21 22 22 22 22 22 22 22 23 23 22 21 20 19 18 17 16 14 13 12
6 4 2 2 3 4 5 6 7 7 8 8 9 10 11 12 14 15 16 17 18 18 19 20 21 22 22 23 23 23 24 24 24 23 23 22 21 20 19 18 17 16 15 14
6 4 2 2 3 4 5 6 7 7 8 9 9 10 11 12 13 15 16 17 18 18 19 19 20 21 22 23 23 24 25 25 25 25 24 24 22 22 21 20 19 18 17 16
6 4 2 2 3 4 5 6 7 8 8 9 10 10 11 12 13 14 15 17 18 18 18 19 19 20 21 22 23 24 25 26 26 26 25 25 24 23 22 21 20 19 18 18
6 4 2 1 1 2 4 6 7 8 9 9 10 11 12 12 13 14 15 16 17 18 18 18 18 19 20 21 23 24 25 26 27 27 27 26 26 25 24 23 22 21 20 20
6 4 2 1 1 2 3 5 6 8 9 9 10 11 12 12 13 14 15 16 16 17 17 17 18 18 19 20 22 23 24 25 26 27 27 27 27 27 26 25 24 23 22 22
6 4 3 3 2 2 3 5 6 7 8 9 10 11 11 12 13 14 15 15 16 16 17 17 17 18 19 20 21 22 23 24 25 26 27 28 28 28 28 27 26 25 24 24
6 5 5 5 4 4 4 5 6 7 8 9 10 11 11 12 12 13 14 15 15 16 16 17 17 17 18 19 20 21 22 23 24 25 27 27 28 29 29 29 28 27 26 26
7 7 7 7 7 7 7 7 8 9 9 10 10 11 11 12 12 13 14 14 15 15 16 16 17 18 18 19 20 21 21 22 23 24 26 27 28 28 29 30 29 29 28 28
9 9 10 10 10 10 9 10 10 10 11 11 11 12 12 13 13 14 14 14 15 16 16 17 17 18 18 19 20 20 21 22 22 23 24 26 27 28 29 30 30 30 29 29
12 12 12 12 13 12 12 12 12 13 13 13 14 14 15 15 15 15 15 16 16 16 17 17 18 18 19 19 20 20 21 22 22 23 24 25 26 27 28 29 30 30 30 30
15 14 14 14 15 14 14 14 15 16 16 16 17 17 17 17 18 18 18 18 18 18 19 19 19 19 20 20 20 21 21 22 22 23 23 24 25 26 27 28 29 30 31 30
17 17 17 17 16 16 16 16 17 18 18 19 19 19 20 20 20 20 20 20 20 20 21 21 21 21 21 21 21 21 22 22 22 23 23 24 24 25 26 26 27 28 29 30
19 19 19 19 18 18 18 19 19 20 20 21 21 21 21 21 22 22 23 23 23 23 23 23 23 23 23 23 23 23 23 23 23 23 24 24 24 24 25 25 26 26 27 28
20 20 21 21 20 20 20 21 22 22 23 23 23 22 22 23 23 24 25 25 25 25 25 25 25 25 25 25 25 24 24 24 24 24 24 24 24 24 24 24 25 25 25 26
22 22 22 21 22 22 22 23 23 24 24 25 25 25 25 25 25 26 26 26 27 27 27 27 27 27 27 27 26 26 25 25 25 25 25 25 24 24 24 24 24 23 23 23
Wind_Direction
248 256 267 277 286 294 301 307 312 318 321 321 322 322 322 323 324 325 328 331 332 332 332 333 332 330 325 320 315 310 302 295 289 285 280 275 270 266 262 258 255 252 250 249
245 255 266 276 286 295 302 308 314 320 323 325 325 326 327 329 329 332 333 335 337 338 340 344 345 346 344 341 336 330 322 312 303 296 289 282 275 270 265 261 258 254 251 248
244 254 265 276 288 296 305 314 321 326 328 329 330 334 336 338 339 339 340 344 348 352 355 355 355 354 353 353 350 345 338 331 321 311 301 292 284 277 271 266 262 257 254 250
240 251 264 277 289 303 316 323 328 331 332 335 339 346 348 348 348 349 352 356 359 1 1 0 -0 360 359 359 358 356 352 346 339 330 319 308 299 288 279 273 268 263 259 255
236 248 262 279 302 318 327 331 333 336 340 346 353 359 359 356 356 360 3 4 3 2 1 360 1 1 2 2 1 0 358 355 352 347 340 330 320 310 297 287 279 271 265 260
230 242 259 294 320 329 333 336 339 345 354 2 6 8 8 6 6 8 8 6 3 1 360 1 2 2 2 1 2 2 3 1 358 353 347 341 334 327 317 309 299 286 275 267
220 226 255 316 332 335 339 344 351 359 5 12 13 16 16 13 13 11 9 7 5 4 4 5 6 5 5 4 4 4 4 4 2 359 355 349 343 337 331 323 315 303 289 279
203 205 245 341 345 346 350 353 359 5 12 17 21 24 20 17 15 12 10 8 6 7 8 9 9 9 8 7 7 6 5 4 3 1 359 354 350 347 341 335 327 318 305 293
188 185 159 11 3 1 359 2 7 15 22 30 32 28 20 15 14 12 9 7 6 7 9 10 11 11 9 8 8 7 7 7 7 6 4 0 355 351 346 342 335 329 320 308
173 164 120 29 19 16 13 12 17 24 30 33 30 24 17 15 12 11 8 7 7 8 10 10 11 12 11 11 11 10 11 11 11 10 7 5 3 360 356 351 346 337 328 317
166 161 137 46 34 30 23 23 27 31 32 30 26 22 17 15 11 7 6 6 8 10 11 13 13 13 13 14 14 14 13 12 12 11 10 8 6 4 2 359 356 351 343 331
166 163 136 64 47 40 35 29 28 28 27 25 21 20 14 11 8 5 6 7 8 9 12 14 15 16 17 18 19 19 17 16 16 14 12 10 9 7 5 2 360 357 351 344
169 164 138 89 58 43 34 25 22 22 23 19 16 15 10 6 4 3 4 6 8 9 11 15 17 18 19 19 20 21 20 18 17 16 15 13 11 9 7 5 1 358 354 348
168 165 150 98 59 42 31 19 17 17 16 16 14 11 7 4 2 2 4 6 7 9 11 14 16 18 19 20 21 21 21 20 19 18 16 15 13 11 9 6 3 360 356 352
172 170 167 128 55 37 28 18 11 9 9 10 9 8 7 6 5 6 6 7 7 8 11 13 15 17 18 19 20 20 21 20 20 19 18 16 14 13 11 8 5 1 358 354
183 189 196 205 334 359 6 3 1 359 359 2 3 4 4 4 5 6 7 7 6 7 9 11 13 14 14 16 17 18 18 18 18 18 17 16 15 14 13 11 8 5 1 357
197 211 229 248 283 318 341 343 345 347 349 352 354 357 358 359 1 2 4 4 3 4 6 7 9 10 10 11 12 13 14 15 16 16 16 15 14 14 14 12 10 8 5 2
212 227 244 259 273 291 308 322 328 333 338 344 349 352 353 355 357 359 359 359 359 359 1 2 3 4 5 6 7 8 9 10 11 12 12 12 12 13 13 12 11 9 7 5
231 243 254 264 272 280 289 298 307 313 320 324 330 335 340 344 347 349 350 351 352 354 355 356 357 357 358 359 1 2 3 4 6 7 8 9 10 10 11 11 11 10 9 7
244 252 260 266 271 276 281 287 293 299 304 309 314 319 324 330 334 338 339 341 342 344 346 348 349 351 352 353 353 355 356 358 360 1 3 4 6 8 9 10 10 10 10 9
253 256 262 267 271 274 278 281 285 288 295 299 303 307 311 316 321 324 327 329 332 333 335 337 340 342 344 345 346 347 349 352 353 355 357 359 1 4 6 7 9 10 9 10
258 261 264 268 271 275 278 279 281 286 290 294 298 301 304 308 311 313 316 319 322 324 326 328 331 333 335 336 338 340 343 346 349 350 352 355 357 359 1 4 6 8 9 10
261 264 266 268 271 275 277 279 282 285 288 291 294 296 299 302 305 307 309 312 314 316 318 320 323 325 327 328 330 333 336 338 341 344 347 349 352 354 357 359 2 5 8 9
262 265 266 268 270 272 274 277 279 281 284 287 290 293 296 299 301 303 305 307 309 311 312 314 315 317 319 320 323 325 328 331 334 337 339 342 345 348 351 354 357 0 4 7
263 265 267 269 271 273 274 276 279 282 284 286 289 292 295 298 300 302 304 306 307 308 309 310 311 312 313 314 316 318 322 324 326 329 332 335 337 340 343 347 350 354 359 3
265 266 268 270 272 273 275 277 279 281 284 288 291 293 296 298 300 301 302 303 304 305 306 308 309 309 310 310 311 312 314 317 319 322 324 327 330 333 335 338 342 347 351 356
Height
5893 5895 5894 5894 5893 5892 5890 5888 5885 5883 5880 5877 5874 5871 5867 5863 5860 5856 5853 5849 5845 5840 5836 5831 5827 5823 5819 5815 5812 5809 5806 5804 5802 5800 5799 5798 5798 5798 5799 5801 5803 5805 5807 5810
5891 5891 5892 5891 5890 5889 5887 5885 5883 5880 5877 5874 5871 5868 5864 5861 5858 5854 5851 5847 5843 5838 5834 5829 5825 5820 5816 5812 5808 5805 5802 5799 5797 5795 5793 5792 5791 5791 5791 5792 5793 5795 5797 5799
5888 5889 5888 5888 5888 5886 5885 5883 5880 5878 5874 5871 5869 5866 5863 5860 5856 5853 5850 5846 5842 5837 5833 5828 5824 5819 5815 5811 5807 5803 5800 5796 5793 5791 5789 5787 5786 5785 5785 5785 5785 5786 5788 5790
5885 5885 5886 5886 5885 5884 5882 5880 5877 5875 5872 5869 5867 5865 5862 5859 5856 5853 5849 5845 5841 5837 5832 5828 5824 5819 5815 5810 5806 5802 5798 5794 5791 5788 5785 5783 5781 5780 5779 5778 5778 5778 5779 5780
5882 5883 5884 5884 5883 5881 5880 5878 5875 5873 5870 5868 5865 5864 5862 5859 5856 5852 5849 5845 5841 5837 5832 5828 5824 5819 5815 5810 5806 5802 5797 5794 5790 5786 5783 5780 5778 5776 5774 5773 5772 5771 5771 5772
5881 5881 5882 5881 5881 5880 5878 5877 5874 5871 5869 5867 5865 5863 5862 5859 5856 5852 5849 5845 5841 5837 5832 5828 5824 5819 5815 5810 5806 5802 5798 5793 5789 5785 5782 5779 5776 5773 5771 5769 5767 5766 5765 5765
5879 5880 5880 5880 5879 5878 5877 5876 5873 5871 5868 5867 5865 5863 5862 5859 5855 5852 5849 5845 5841 5837 5833 5828 5824 5819 5815 5811 5806 5802 5798 5794 5789 5785 5781 5778 5774 5771 5769 5766 5764 5762 5760 5759
5878 5879 5879 5879 5879 5877 5876 5875 5874 5871 5869 5867 5865 5863 5862 5859 5856 5853 5849 5846 5842 5838 5833 5829 5824 5820 5816 5811 5807 5803 5798 5794 5789 5785 5781 5777 5774 5770 5767 5764 5761 5758 5756 5754
5877 5878 5878 5878 5878 5877 5876 5874 5873 5871 5869 5867 5866 5864 5862 5859 5856 5853 5850 5847 5843 5839 5835 5830 5825 5821 5817 5812 5808 5803 5799 5794 5790 5785 5781 5777 5773 5769 5766 5762 5759 5756 5754 5751
5876 5877 5878 5878 5878 5877 5876 5875 5873 5872 5870 5868 5867 5865 5863 5860 5857 5854 5851 5848 5844 5840 5836 5831 5827 5822 5818 5813 5809 5804 5800 5795 5790 5786 5781 5777 5773 5769 5765 5761 5758 5754 5752 5749
5876 5878 5879 5878 5878 5877 5877 5876 5874 5872 5870 5869 5867 5868 5864 5861 5858 5855 5852 5849 5845 5841 5837 5832 5828 5823 5819 5815 5810 5805 5801 5796 5791 5787 5782 5778 5773 5769 5765 5761 5757 5753 5750 5747
5876 5878 5878 5878 5878 5877 5877 5876 5875 5873 5872 5869 5868 5870 5864 5862 5859 5856 5853 5849 5846 5842 5838 5833 5829 5825 5821 5816 5812 5807 5802 5798 5793 5788 5783 5779 5774 5769 5765 5761 5757 5753 5749 5746
5876 5878 5879 5879 5880 5879 5877 5876 5875 5874 5872 5870 5869 5870 5865 5862 5859 5857 5853 5850 5846 5843 5839 5835 5831 5827 5823 5818 5814 5809 5804 5799 5794 5789 5785 5780 5775 5770 5766 5761 5757 5753 5749 5745
5877 5878 5879 5880 5879 5878 5878 5877 5875 5874 5872 5871 5869 5868 5865 5863 5860 5857 5854 5851 5847 5844 5840 5836 5832 5828 5824 5820 5816 5811 5806 5801 5796 5791 5786 5781 5776 5771 5766 5762 5757 5753 5748 5744
5877 5878 5878 5879 5879 5878 5878 5877 5876 5874 5873 5871 5870 5867 5866 5863 5860 5857 5854 5851 5848 5844 5841 5837 5833 5830 5826 5822 5817 5813 5808 5803 5798 5793 5788 5783 5778 5772 5767 5762 5757 5752 5748 5743
5876 5878 5878 5879 5879 5878 5877 5877 5875 5874 5873 5871 5869 5868 5865 5863 5860 5857 5854 5851 5848 5845 5842 5838 5834 5831 5827 5823 5819 5814 5810 5805 5800 5795 5790 5784 5779 5774 5768 5763 5758 5752 5747 5742
5876 5877 5878 5878 5878 5878 5877 5876 5875 5874 5873 5871 5869 5868 5865 5863 5860 5857 5855 5852 5849 5846 5842 5839 5835 5831 5828 5824 5820 5815 5811 5806 5802 5797 5792 5786 5781 5775 5770 5764 5758 5753 5747 5742
5876 5876 5877 5877 5878 5877 5879 5876 5874 5873 5872 5870 5869 5867 5865 5863 5860 5857 5855 5852 5849 5846 5843 5839 5836 5832 5828 5825 5821 5816 5812 5808 5803 5798 5793 5788 5782 5777 5771 5765 5759 5753 5747 5742
5874 5875 5875 5875 5875 5875 5876 5874 5873 5872 5871 5869 5868 5866 5864 5862 5859 5857 5854 5852 5849 5846 5843 5839 5836 5832 5829 5825 5821 5817 5813 5808 5804 5799 5795 5789 5784 5778 5772 5766 5760 5754 5748 5742
5872 5873 5874 5873 5873 5873 5874 5873 5871 5871 5869 5868 5866 5864 5862 5860 5859 5857 5854 5851 5848 5845 5842 5839 5836 5832 5828 5825 5821 5817 5813 5809 5805 5800 5795 5790 5785 5780 5774 5768 5761 5755 5749 5743
5869 5870 5870 5870 5870 5870 5871 5870 5869 5870 5868 5865 5863 5862 5860 5858 5857 5855 5852 5849 5847 5844 5841 5838 5835 5831 5828 5824 5821 5817 5813 5809 5805 5800 5796 5791 5786 5780 5775 5769 5763 5757 5750 5744
5866 5866 5867 5867 5867 5869 5867 5866 5866 5865 5863 5862 5860 5859 5857 5855 5853 5851 5849 5847 5844 5842 5839 5836 5833 5830 5826 5823 5820 5816 5812 5809 5804 5800 5796 5791 5786 5781 5776 5770 5765 5759 5752 5746
5862 5863 5863 5864 5865 5864 5862 5862 5861 5860 5859 5858 5857 5855 5853 5851 5849 5847 5845 5843 5841 5838 5836 5833 5830 5827 5824 5821 5818 5815 5811 5807 5803 5799 5795 5791 5786 5782 5777 5771 5766 5760 5755 5749
5857 5857 5858 5858 5858 5858 5857 5857 5856 5855 5854 5853 5852 5851 5849 5847 5845 5843 5841 5839 5836 5834 5832 5829 5827 5824 5821 5818 5815 5812 5809 5805 5802 5798 5794 5790 5786 5782 5777 5772 5767 5762 5757 5751
5852 5852 5852 5852 5853 5852 5852 5851 5851 5850 5849 5848 5847 5846 5844 5843 5841 5839 5836 5834 5832 5829 5827 5825 5823 5820 5817 5815 5812 5809 5806 5802 5799 5796 5792 5789 5785 5781 5777 5772 5768 5763 5758 5753
5845 5846 5847 5847 5847 5847 5847 5846 5845 5844 5843 5842 5841 5840 5839 5837 5836 5834 5831 5829 5827 5825 5822 5820 5818 5815 5812 5810 5807 5804 5802 5799 5796 5792 5789 5786 5783 5779 5776 5772 5768 5764 5760 5755